TimeCST,TemperatureF,Dew PointF,Humidity,Sea Level PressureIn,VisibilityMPH,Wind Direction,Wind SpeedMPH,Gust SpeedMPH,PrecipitationIn,Events,Conditions,WindDirDegrees,DateUTC
12:15 AM,14.9,13.1,93,30.11,2.5,West,5.8,-,N/A,,Overcast,280,2013-12-23 06:15:00
12:35 AM,13.5,11.1,90,30.11,7.0,WNW,8.1,-,N/A,,Scattered Clouds,290,2013-12-23 06:35:00
12:55 AM,12.2,10.2,92,30.12,10.0,WNW,8.1,-,N/A,,Mostly Cloudy,290,2013-12-23 06:55:00
1:15 AM,11.5,8.8,89,30.13,7.0,WNW,8.1,-,N/A,,Overcast,290,2013-12-23 07:15:00
1:35 AM,10.6,8.1,90,30.14,5.0,West,8.1,-,N/A,,Overcast,280,2013-12-23 07:35:00
1:55 AM,9.3,6.8,89,30.14,5.0,West,5.8,-,N/A,,Overcast,280,2013-12-23 07:55:00
2:15 AM,8.6,5.9,89,30.15,7.0,West,6.9,-,N/A,,Overcast,280,2013-12-23 08:15:00
2:35 AM,7.7,4.8,88,30.15,4.0,West,6.9,-,N/A,,Overcast,280,2013-12-23 08:35:00
2:55 AM,6.8,3.9,88,30.16,5.0,West,6.9,-,N/A,,Overcast,280,2013-12-23 08:55:00
3:15 AM,7.3,4.5,88,30.17,3.0,West,5.8,-,N/A,,Overcast,280,2013-12-23 09:15:00
3:35 AM,6.8,3.6,87,30.17,2.0,WNW,8.1,-,N/A,,Overcast,290,2013-12-23 09:35:00
3:55 AM,5.9,2.3,85,30.18,4.0,WNW,9.2,-,N/A,,Overcast,290,2013-12-23 09:55:00
4:15 AM,5.4,2.3,87,30.18,5.0,West,5.8,-,N/A,,Overcast,270,2013-12-23 10:15:00
4:35 AM,4.3,1.0,86,30.19,5.0,West,6.9,-,N/A,,Overcast,280,2013-12-23 10:35:00
4:55 AM,4.1,0.5,85,30.19,3.0,West,8.1,-,N/A,,Overcast,260,2013-12-23 10:55:00
5:15 AM,3.9,0.5,86,30.20,4.0,West,9.2,-,N/A,,Overcast,270,2013-12-23 11:15:00
5:35 AM,3.4,-0.4,84,30.20,5.0,West,9.2,-,N/A,,Overcast,270,2013-12-23 11:35:00
5:55 AM,3.2,-0.6,84,30.20,7.0,West,6.9,-,N/A,,Overcast,270,2013-12-23 11:55:00
6:15 AM,2.8,-1.1,84,30.21,7.0,West,9.2,-,N/A,,Overcast,270,2013-12-23 12:15:00
6:35 AM,2.3,-1.5,84,30.22,7.0,West,5.8,-,N/A,,Overcast,270,2013-12-23 12:35:00
6:55 AM,1.6,-2.2,84,30.22,7.0,West,8.1,-,N/A,,Overcast,270,2013-12-23 12:55:00
7:15 AM,0.3,-3.5,84,30.23,5.0,West,5.8,-,N/A,,Overcast,260,2013-12-23 13:15:00
7:35 AM,0.5,-3.3,84,30.24,5.0,West,6.9,-,N/A,,Overcast,260,2013-12-23 13:35:00
7:55 AM,-0.2,-3.8,85,30.24,10.0,West,5.8,-,N/A,,Overcast,270,2013-12-23 13:55:00
8:15 AM,0.3,-3.8,83,30.25,10.0,West,5.8,-,N/A,,Overcast,270,2013-12-23 14:15:00
8:35 AM,0.1,-4.2,82,30.25,10.0,West,5.8,-,N/A,,Mostly Cloudy,280,2013-12-23 14:35:00
8:55 AM,-0.4,-5.1,81,30.26,10.0,WSW,9.2,-,N/A,,Scattered Clouds,250,2013-12-23 14:55:00
9:15 AM,-1.3,-6.2,80,30.27,10.0,WSW,9.2,-,N/A,,Clear,250,2013-12-23 15:15:00
9:35 AM,-1.5,-6.5,79,30.28,10.0,WSW,9.2,-,N/A,,Clear,250,2013-12-23 15:35:00
9:55 AM,-1.3,-6.7,78,30.28,10.0,West,9.2,-,N/A,,Clear,260,2013-12-23 15:55:00
10:15 AM,-0.8,-6.5,77,30.29,10.0,West,9.2,-,N/A,,Clear,260,2013-12-23 16:15:00
10:35 AM,-0.4,-6.5,75,30.29,10.0,WSW,10.4,-,N/A,,Clear,250,2013-12-23 16:35:00
10:55 AM,-0.2,-6.7,74,30.30,10.0,WSW,9.2,-,N/A,,Clear,250,2013-12-23 16:55:00
11:15 AM,-0.2,-6.9,73,30.29,10.0,West,9.2,-,N/A,,Clear,260,2013-12-23 17:15:00
11:35 AM,0.3,-6.7,72,30.28,10.0,WSW,9.2,-,N/A,,Clear,250,2013-12-23 17:35:00
11:55 AM,0.9,-6.2,72,30.28,10.0,WSW,10.4,-,N/A,,Clear,250,2013-12-23 17:55:00
12:15 PM,1.6,-6.0,71,30.28,10.0,West,11.5,-,N/A,,Clear,260,2013-12-23 18:15:00
12:35 PM,2.1,-5.4,71,30.28,10.0,West,6.9,-,N/A,,Clear,270,2013-12-23 18:35:00
12:55 PM,2.1,-5.8,69,30.28,10.0,West,10.4,-,N/A,,Clear,260,2013-12-23 18:55:00
1:15 PM,2.1,-6.0,69,30.29,10.0,WSW,10.4,-,N/A,,Scattered Clouds,250,2013-12-23 19:15:00
1:35 PM,1.2,-6.5,70,30.29,10.0,WSW,10.4,-,N/A,,Scattered Clouds,250,2013-12-23 19:35:00
1:55 PM,1.6,-6.3,69,30.29,10.0,WSW,11.5,-,N/A,,Scattered Clouds,240,2013-12-23 19:55:00
2:15 PM,1.2,-6.5,70,30.30,10.0,WSW,10.4,-,N/A,,Mostly Cloudy,240,2013-12-23 20:15:00
2:35 PM,1.6,-6.5,69,30.30,10.0,WSW,11.5,-,N/A,,Scattered Clouds,250,2013-12-23 20:35:00
2:55 PM,0.5,-6.7,72,30.31,10.0,WSW,12.7,-,N/A,,Mostly Cloudy,250,2013-12-23 20:55:00
3:15 PM,0.5,-6.2,74,30.31,10.0,West,10.4,-,N/A,,Overcast,260,2013-12-23 21:15:00
3:35 PM,0.5,-6.0,74,30.32,7.0,West,8.1,-,N/A,,Overcast,270,2013-12-23 21:35:00
3:55 PM,-0.4,-6.2,77,30.33,10.0,West,8.1,-,N/A,,Mostly Cloudy,260,2013-12-23 21:55:00
4:15 PM,0.1,-5.4,77,30.33,4.0,West,8.1,-,N/A,,Overcast,270,2013-12-23 22:15:00
4:35 PM,-0.4,-5.8,78,30.34,4.0,West,6.9,-,N/A,,Overcast,280,2013-12-23 22:35:00
4:55 PM,-0.6,-6.3,77,30.34,10.0,West,8.1,-,N/A,,Overcast,280,2013-12-23 22:55:00
5:15 PM,-0.6,-6.2,77,30.35,7.0,West,6.9,-,N/A,,Overcast,280,2013-12-23 23:15:00
5:35 PM,-0.8,-6.3,77,30.35,7.0,West,6.9,-,N/A,,Overcast,280,2013-12-23 23:35:00
5:55 PM,-0.9,-6.7,77,30.36,10.0,WNW,6.9,-,N/A,,Overcast,290,2013-12-23 23:55:00
6:15 PM,-1.3,-6.7,78,30.36,10.0,WNW,8.1,-,N/A,,Overcast,290,2013-12-24 00:15:00
6:35 PM,-1.3,-6.7,78,30.37,10.0,WNW,6.9,-,N/A,,Overcast,290,2013-12-24 00:35:00
6:55 PM,-1.5,-6.9,78,30.37,10.0,WNW,8.1,-,N/A,,Overcast,300,2013-12-24 00:55:00
7:15 PM,-1.5,-6.9,78,30.37,10.0,WNW,9.2,-,N/A,,Overcast,300,2013-12-24 01:15:00
7:35 PM,-1.7,-6.9,78,30.38,10.0,WNW,8.1,-,N/A,,Overcast,300,2013-12-24 01:35:00
7:55 PM,-1.8,-7.1,78,30.39,10.0,WNW,8.1,-,N/A,,Overcast,290,2013-12-24 01:55:00
8:15 PM,-2.2,-7.1,80,30.39,7.0,West,5.8,-,N/A,,Overcast,280,2013-12-24 02:15:00
8:35 PM,-2.4,-7.6,78,30.38,7.0,WNW,6.9,-,N/A,,Overcast,290,2013-12-24 02:35:00
8:55 PM,-2.7,-7.6,80,30.38,7.0,WNW,5.8,-,N/A,,Overcast,300,2013-12-24 02:55:00
9:15 PM,-3.8,-8.5,80,30.38,10.0,WNW,6.9,-,N/A,,Mostly Cloudy,300,2013-12-24 03:15:00
9:35 PM,-5.4,-9.8,82,30.38,10.0,West,4.6,-,N/A,,Scattered Clouds,280,2013-12-24 03:35:00
9:55 PM,-5.8,-10.1,82,30.38,2.5,WNW,4.6,-,N/A,,Clear,290,2013-12-24 03:55:00
10:15 PM,-6.7,-10.7,83,30.39,10.0,WNW,4.6,-,N/A,,Clear,290,2013-12-24 04:15:00
10:35 PM,-7.1,-11.2,82,30.39,10.0,WNW,4.6,-,N/A,,Clear,290,2013-12-24 04:35:00
10:55 PM,-7.6,-11.2,84,30.38,10.0,WNW,4.6,-,N/A,,Clear,290,2013-12-24 04:55:00
11:15 PM,-8.0,-11.7,84,30.39,10.0,WNW,5.8,-,N/A,,Clear,290,2013-12-24 05:15:00
11:35 PM,-8.9,-12.6,83,30.39,10.0,West,4.6,-,N/A,,Clear,280,2013-12-24 05:35:00
11:55 PM,-8.5,-12.3,83,30.39,10.0,West,4.6,-,N/A,,Clear,280,2013-12-24 05:55:00